Regional Weather Roundup
Issued by NWS

Home | Current Version | Previous Version | Graphics & Text | Print | Product List | Glossary On
Versions: 1 2 3 4 5 6 7 8 9 10 11 12 13 14 15 16 17 18 19 20 21 22 23 24 25 26 27 28 29 30 31 32 33 34 35 36 37 38 39 40 41 42 43 44 45 46 47 48 49 50
793
ASUS45 KSLC 231410
RWRUT

UTAH REGIONAL WEATHER ROUNDUP
NATIONAL WEATHER SERVICE SALT LAKE CITY UT
700 AM MST THU FEB 23 2017

UTZ001>011-023>025-231500-

NORTHERN UTAH

CITY           SKY/WX    TMP DP  RH WIND       PRES   REMARKS
BRIGHAM CITY     N/A     32  24  73 CALM      29.70S
HILL AFB       CLOUDY    28  22  78 SW7       29.68S WCI  21
LOGAN          CLOUDY    29  24  82 CALM      29.67S
OGDEN          CLOUDY    29  23  78 W3        29.69S
SALT LAKE CITY CLOUDY    29  26  89 SE6       29.71S WCI  23
TOOELE VALLEY  CLOUDY    27  21  80 S6        29.73S WCI  20
WENDOVER       CLOUDY    30  16  55 NW15      29.74S WCI  19
HEBER CITY     LGT SNOW  21  16  79 SW8       29.63S WCI  12
WEST JORDAN    CLOUDY    28  28 100 CALM      29.71S

$$

UTZ011>015-024>027-231500-

CENTRAL/NORTHEAST UTAH

CITY           SKY/WX    TMP DP  RH WIND       PRES   REMARKS
PROVO AIRPORT  CLOUDY    28  23  81 SW15      29.72S WCI  16
MOAB/CANYONLAN MOCLDY    33  16  49 W14       29.63R WCI  23
DELTA          CLOUDY    23  19  86 S6        29.75S WCI  16
PRICE          PTCLDY    25  13  60 W7        29.62R WCI  17
ROOSEVELT      CLOUDY    28  19  69 W18       29.54S WCI  16
VERNAL         LGT SNOW  25  23  92 SW3       29.54R VSB 3/4

$$

UTZ013>016-019>022-027-231500-

SOUTHERN UTAH

CITY           SKY/WX    TMP DP  RH WIND       PRES   REMARKS
BRYCE CANYON   CLEAR     12   3  67 NW7       29.70R WCI   1
CEDAR CITY     CLEAR     17  11  77 SW6       29.77S WCI   9
MILFORD        CLEAR     20   8  60 SW14      29.75S WCI   7
ST GEORGE      PTSUNNY   36  31  82 S3        29.87R
HANKSVILLE     CLEAR     32   5  32 W12       29.72R WCI  23
BLANDING       MOCLDY    30  19  64 NW9       29.74R WCI  21

$$

REGIONAL REPORTS     COLORADO/ARIZONA

CITY           SKY/WX    TMP DP  RH WIND       PRES   REMARKS
CRAIG, CO      LGT SNOW  26  23  88 W6        29.48S FOG     WCI  19
GRAND JUNCTION MOCLDY    33  20  58 W8        29.59R WCI  26
RIFLE, CO      PTCLDY    32  21  64 W37G43    29.51S WCI  16
MONTROSE, CO   PTCLDY    33  24  69 SW13      29.59R WCI  24
CORTEZ, CO     FLURRIES  33  28  81 SW12      29.67R WCI  24
COLORADO CITY    N/A     32  30  93 W8        29.84R WCI  25
PAGE, AZ       CLEAR     37   9  31 W12G24    29.76R WCI  29
GRAND CANYON   MOCLDY    16  15  96 CALM      29.81R
KINGMAN, AZ    CLEAR     34  18  52 S10       29.88R WCI  26
FLAGSTAFF, AZ  CLOUDY    26  19  74 SW16G24   29.79S WCI  14

$$

REGIONAL REPORTS    NEVADA/IDAHO/WYOMING

CITY           SKY/WX    TMP DP  RH WIND       PRES   REMARKS
LAS VEGAS, NV  PTCLDY    45  10  24 NW8       29.90R
ELY, NY        CLOUDY    18  14  84 SW3       29.80R
ELKO, NV       CLOUDY    25  16  68 W6        29.84R WCI  18
POCATELLO, ID  FLURRIES  26  25  96 SW10      29.66S WCI  16
BURLEY, ID     LGT SNOW  28  23  81 W18       29.68S VSB 1   WCI  15
FORT BRIDGER,  LGT SNOW  20  20 100 W20       29.58S WCI   4
EVANSTON, WY   CLOUDY    17  12  80 W14       29.57S WCI   3
ROCK SPRINGS,  LGT SNOW  23  20  88 VRB5      29.49R VSB 3/4 WCI  17

$$




USA.gov is the U.S. government's official web portal to all federal, state and local government web resources and services.